"2010-11-14 00:00:00",334381,8.31,81.3,3.482,0.676,3.865,99.21876,-2.691,-1.487,93,0,109.4,13.58,-1.95,43.3
"2010-11-14 00:00:30",334382,8.05,83.6,3.02,0.643,3.737,99.21876,-2.691,-1.467,92.9,0,109.4,13.58,-1.95,45.6
"2010-11-14 00:01:00",334383,7.868,82.8,3.674,0.677,3.659,99.22188,-2.683,-1.467,92.9,0,109.4,13.58,-1.94,44.8
"2010-11-14 00:01:30",334384,8.13,81.1,3.343,0.671,3.586,99.22556,-2.673,-1.462,92.8,0,109.4,13.58,-1.93,43.1
"2010-11-14 00:02:00",334385,8.13,81.2,3.571,0.625,3.682,99.22471,-2.675,-1.471,92.7,0,109.4,13.58,-1.93,43.2
"2010-11-14 00:02:30",334386,8.02,81.4,4.183,0.384,3.957,99.22556,-2.673,-1.474,92.7,0,109.4,13.58,-1.93,43.4
"2010-11-14 00:03:00",334387,7.912,82.9,3.329,0.672,3.585,99.23009,-2.662,-1.459,92.6,0,109.4,13.59,-1.92,44.9
"2010-11-14 00:03:30",334388,8.04,85.3,3.286,0.762,3.87,99.23434,-2.651,-1.437,92.6,0,109.4,13.59,-1.91,47.3
"2010-11-14 00:04:00",334389,7.845,86.3,3.508,0.744,3.7,99.24622,-2.621,-1.434,92.5,0,109.4,13.59,-1.88,48.3
"2010-11-14 00:04:30",334390,7.844,86.1,3.748,0.637,3.608,99.25414,-2.601,-1.442,92.4,0,109.4,13.58,-1.86,48.1
"2010-11-14 00:05:00",334391,7.877,87.3,3.5,0.662,3.617,99.26118,-2.583,-1.438,92.4,0,109.4,13.58,-1.84,49.3
"2010-11-14 00:05:30",334392,7.88,89,2.438,0.733,3.816,99.26315,-2.578,-1.423,92.3,0,109.4,13.58,-1.83,51.0
"2010-11-14 00:06:00",334393,7.832,87.1,4.187,0.672,3.625,99.2682,-2.565,-1.415,92.2,0,109.4,13.58,-1.82,49.1
"2010-11-14 00:06:30",334394,7.746,88,3.654,0.563,3.613,99.26932,-2.562,-1.403,92.1,0,109.4,13.58,-1.82,50.0
"2010-11-14 00:07:00",334395,7.811,88.6,3.301,0.68,3.479,99.27185,-2.555,-1.397,92,0,109.4,13.58,-1.81,50.6
"2010-11-14 00:07:30",334396,7.902,91.5,3.367,0.771,3.872,99.27354,-2.551,-1.404,91.9,0,109.4,13.58,-1.81,53.5
"2010-11-14 00:08:00",334397,7.986,91.9,3.279,0.651,3.927,99.27382,-2.55,-1.381,91.9,0,109.4,13.58,-1.81,53.9
"2010-11-14 00:08:30",334398,8.01,89.3,3.593,0.627,3.839,99.27635,-2.544,-1.39,91.8,0,109.4,13.58,-1.80,51.3
"2010-11-14 00:09:00",334399,8.05,93.9,2.858,0.653,3.888,99.2789,-2.537,-1.387,91.7,0,109.4,13.58,-1.79,55.9
"2010-11-14 00:09:30",334400,7.895,92.3,3.927,0.761,3.972,99.28654,-2.518,-1.369,91.6,0,109.4,13.59,-1.77,54.3
"2010-11-14 00:10:00",334401,7.99,92.8,3.72,0.534,3.818,99.2936,-2.5,-1.349,91.5,0,109.4,13.59,-1.76,54.8
"2010-11-14 00:10:30",334402,7.745,93.8,2.896,0.812,3.632,99.29758,-2.49,-1.353,91.4,0,109.4,13.59,-1.75,55.8
"2010-11-14 00:11:00",334403,7.76,92.7,4.465,0.593,3.804,99.30778,-2.464,-1.332,91.3,0,109.4,13.59,-1.72,54.7
"2010-11-14 00:11:30",334404,7.656,93.2,3.307,0.663,3.807,99.31203,-2.453,-1.347,91.2,0,109.4,13.59,-1.71,55.2
"2010-11-14 00:12:00",334405,7.51,92.9,3.221,0.743,3.638,99.31372,-2.449,-1.339,91.1,0,109.4,13.59,-1.71,54.9
"2010-11-14 00:12:30",334406,7.478,93.2,3.739,0.662,3.813,99.31203,-2.453,-1.319,90.9,0,109.4,13.59,-1.71,55.2
"2010-11-14 00:13:00",334407,7.49,94.9,4.623,0.539,4.103,99.31315,-2.45,-1.319,90.8,0,109.4,13.59,-1.71,56.9
"2010-11-14 00:13:30",334408,6.869,92.2,5.7,1.033,3.05,99.314,-2.448,-1.289,90.6,0,109.4,13.59,-1.70,54.2
"2010-11-14 00:14:00",334409,6.691,89.2,5.773,1.097,2.55,99.32449,-2.421,-1.336,90.4,0,109.4,13.59,-1.68,51.2
"2010-11-14 00:14:30",334410,6.767,89,5.82,1.079,2.443,99.32845,-2.411,-1.388,90.2,0,109.4,13.59,-1.67,51.0
"2010-11-14 00:15:00",334411,6.938,87.6,5.204,0.98,2.852,99.32788,-2.413,-1.315,90.2,0,109.4,13.59,-1.67,49.6
"2010-11-14 00:15:30",334412,6.688,86.7,5.908,1.139,2.963,99.3293,-2.409,-1.327,90.2,0,109.4,13.59,-1.67,48.7
"2010-11-14 00:16:00",334413,7.265,88.3,5.227,0.904,4.283,99.3273,-2.414,-1.294,90.1,0,109.4,13.6,-1.67,50.3
"2010-11-14 00:16:30",334414,7.012,90.7,4.169,0.874,4.371,99.31966,-2.434,-1.289,90.2,0,109.4,13.6,-1.69,52.7
"2010-11-14 00:17:00",334415,6.88,90,3.376,0.74,4.542,99.32051,-2.431,-1.261,90.2,0,109.4,13.6,-1.69,52.0
"2010-11-14 00:17:30",334416,6.765,89.7,3.581,0.767,4.408,99.32758,-2.413,-1.229,90.1,0,109.4,13.6,-1.67,51.7
"2010-11-14 00:18:00",334417,6.879,91.4,3.281,0.662,4.098,99.33211,-2.402,-1.26,90.1,0,109.4,13.6,-1.66,53.4
"2010-11-14 00:18:30",334418,6.786,93.8,3.26,0.759,3.669,99.34201,-2.377,-1.252,90,0,109.4,13.6,-1.63,55.8
"2010-11-14 00:19:00",334419,6.975,93.9,4.023,0.247,3.615,99.3522,-2.351,-1.257,89.8,0,109.4,13.6,-1.61,55.9
"2010-11-14 00:19:30",334420,6.141,90.2,5.699,1.089,2.096,99.35446,-2.345,-1.306,89.5,0,109.4,13.6,-1.60,52.2
"2010-11-14 00:20:00",334421,4.852,80.8,5.986,1.008,-0.379,99.36295,-2.323,-1.501,89.1,0,109.4,13.6,-1.58,42.8
"2010-11-14 00:20:30",334422,5.236,86.3,6.155,1.145,1.389,99.37259,-2.299,-1.255,89.2,0,109.4,13.6,-1.55,48.3
"2010-11-14 00:21:00",334423,6.351,93.1,5.535,1.051,3.364,99.38789,-2.26,-1.188,89,0,109.4,13.6,-1.52,55.1
"2010-11-14 00:21:30",334424,6.7,94.4,3.593,0.569,4.475,99.38817,-2.259,-1.143,88.9,0,109.4,13.6,-1.51,56.4
"2010-11-14 00:22:00",334425,6.368,95.4,3.025,0.759,4.228,99.38817,-2.259,-1.136,88.7,0,109.4,13.6,-1.51,57.4
"2010-11-14 00:22:30",334426,6.004,92.8,5.806,1.16,2.65,99.39468,-2.242,-1.161,88.4,0,109.4,13.6,-1.50,54.8
"2010-11-14 00:23:00",334427,5.886,92.7,5.841,1.118,2.595,99.40743,-2.21,-1.159,88.3,0,109.4,13.6,-1.47,54.7
"2010-11-14 00:23:30",334428,5.748,92.6,6.4,1.208,1.957,99.42103,-2.175,-1.232,88.1,0,109.4,13.6,-1.43,54.6
"2010-11-14 00:24:00",334429,5.572,92.3,5.966,1.222,2.317,99.42216,-2.172,-1.135,88.1,0,109.4,13.6,-1.43,54.3
"2010-11-14 00:24:30",334430,6.274,93.1,5.38,0.533,4.623,99.42216,-2.172,-1.073,88.2,0,109.4,13.6,-1.43,55.1
"2010-11-14 00:25:00",334431,6.126,92,2.987,0.707,4.718,99.42216,-2.172,-1.035,88.1,0,109.4,13.6,-1.43,54.0
"2010-11-14 00:25:30",334432,5.782,89.6,4.122,1.002,4.217,99.42216,-2.172,-1.032,88.1,0,109.4,13.6,-1.43,51.6
"2010-11-14 00:26:00",334433,5.633,88.2,5.535,1.063,3.16,99.42216,-2.172,-1.084,88.1,0,109.4,13.61,-1.43,50.2
"2010-11-14 00:26:30",334434,5.162,83.8,5.747,1.238,1.903,99.42216,-2.172,-1.168,88.1,0,109.4,13.61,-1.43,45.8
"2010-11-14 00:27:00",334435,5.018,81.1,5.945,1.296,1.415,99.42188,-2.173,-1.2,88.1,0,109.4,13.61,-1.43,43.1
"2010-11-14 00:27:30",334436,5.293,81.4,6.075,1.253,2.606,99.40658,-2.212,-1.102,88.4,0,109.4,13.61,-1.47,43.4
"2010-11-14 00:28:00",334437,5.939,81.3,5.211,0.95,4.122,99.39666,-2.237,-1.054,88.5,0,109.4,13.61,-1.49,43.3
"2010-11-14 00:28:30",334438,6.077,81.8,2.804,0.73,4.311,99.39014,-2.254,-1.037,88.6,0,109.4,13.61,-1.51,43.8
"2010-11-14 00:29:00",334439,5.802,81.6,4.452,0.694,4.012,99.38844,-2.258,-1.049,88.7,0,109.4,13.61,-1.51,43.6
"2010-11-14 00:29:30",334440,5.223,83,5.988,0.993,2.997,99.39242,-2.248,-1.172,88.6,0,109.4,13.61,-1.50,45.0
"2010-11-14 00:30:00",334441,3.49,77.31,5.066,0.906,0.325,99.41139,-2.2,-1.226,88.5,0,109.4,13.61,-1.46,39.3
"2010-11-14 00:30:30",334442,4.618,81.1,6.447,1.161,2.519,99.42216,-2.172,-1.153,88.4,0,109.4,13.61,-1.43,43.1
"2010-11-14 00:31:00",334443,4.785,82.1,4.745,1.022,3.75,99.42216,-2.172,-1.111,88.3,0,109.4,13.62,-1.43,44.1
"2010-11-14 00:31:30",334444,4.957,82.5,2.759,0.767,4.507,99.43291,-2.145,-0.996,88.2,0,109.4,13.62,-1.40,44.5
"2010-11-14 00:32:00",334445,4.641,79.47,5.582,0.99,3.262,99.45417,-2.091,-1.034,87.9,0,109.4,13.62,-1.35,41.5
"2010-11-14 00:32:30",334446,4.303,77.98,6.448,1.169,2.366,99.45644,-2.085,-1.126,87.5,0,109.4,13.62,-1.34,40.0
"2010-11-14 00:33:00",334447,3.423,72.82,6.041,1.125,1.461,99.47314,-2.042,-1.116,87.1,0,109.4,13.62,-1.30,34.8
"2010-11-14 00:33:30",334448,3.397,71.53,6.407,1.165,1.199,99.49014,-1.999,-1.079,86.7,0,109.4,13.62,-1.25,33.5
"2010-11-14 00:34:00",334449,4.533,74.88,5.948,0.985,3.587,99.49043,-1.998,-0.969,86.3,0,109.4,13.62,-1.25,36.9
"2010-11-14 00:34:30",334450,4.749,76.38,4.572,0.93,4.087,99.49836,-1.978,-0.888,86,0,109.4,13.62,-1.23,38.4
"2010-11-14 00:35:00",334451,4.327,73.82,6.079,1.174,2.982,99.49864,-1.977,-0.89,85.8,0,109.4,13.62,-1.23,35.8
"2010-11-14 00:35:30",334452,4.006,68.21,7.228,1.169,1.945,99.49326,-1.991,-0.979,85.5,0,109.4,13.62,-1.25,30.2
"2010-11-14 00:36:00",334453,3.561,64.09,6.45,1.136,1.203,99.49977,-1.975,-0.998,85.3,0,109.4,13.62,-1.23,26.1
"2010-11-14 00:36:30",334454,3.207,58.04,5.637,1.035,0.988,99.50798,-1.954,-0.957,85,0,109.4,13.62,-1.21,20.0
"2010-11-14 00:37:00",334455,3.421,54.67,5.249,1.114,1.811,99.51676,-1.931,-0.925,84.8,0,109.4,13.62,-1.19,16.7
"2010-11-14 00:37:30",334456,4.555,60.9,4.419,0.973,4.453,99.52413,-1.913,-0.838,84.5,0,109.4,13.62,-1.17,22.9
"2010-11-14 00:38:00",334457,4.15,60.31,5.783,1.074,3.614,99.52583,-1.908,-0.828,84.1,0,109.4,13.62,-1.16,22.3
"2010-11-14 00:38:30",334458,4.179,60.85,4.988,1.054,3.239,99.55047,-1.845,-0.823,83.6,0,109.4,13.62,-1.10,22.8
"2010-11-14 00:39:00",334459,2.796,54.04,5.074,0.941,0.653,99.5584,-1.825,-0.888,83.2,0,109.4,13.62,-1.08,16.0
"2010-11-14 00:39:30",334460,3.134,54.65,6.859,1.233,1.305,99.56888,-1.798,-0.83,82.9,0,109.4,13.61,-1.05,16.7
"2010-11-14 00:40:00",334461,3.951,56.6,7.166,1.18,2.682,99.58418,-1.759,-0.89,82.5,0,109.4,13.62,-1.01,18.6
"2010-11-14 00:40:30",334462,4.461,57.03,4.137,0.954,4.201,99.59212,-1.739,-0.658,82.6,0,109.4,13.62,-0.99,19.0
"2010-11-14 00:41:00",334463,4.473,55.07,5.674,1.01,3.844,99.5924,-1.739,-0.703,82.4,0,109.4,13.62,-0.99,17.1
"2010-11-14 00:41:30",334464,4.479,55.83,4.923,0.968,4.191,99.5924,-1.739,-0.613,82.3,0,109.4,13.62,-0.99,17.8
"2010-11-14 00:42:00",334465,2.788,48.9,3.447,0.825,0.524,99.59325,-1.736,-0.789,81.9,0,109.4,13.62,-0.99,10.9
"2010-11-14 00:42:30",334466,3.138,53.17,6.255,1.244,1.317,99.59352,-1.736,-0.793,81.8,0,109.4,13.62,-0.99,15.2
"2010-11-14 00:43:00",334467,3.516,51.4,5.991,1.275,2.113,99.59975,-1.72,-0.738,81.7,0,109.4,13.63,-0.97,13.4
"2010-11-14 00:43:30",334468,4.116,50.47,5.718,1.071,3.719,99.61306,-1.686,-0.579,81.6,0,109.4,13.63,-0.94,12.5
"2010-11-14 00:44:00",334469,4.121,49.75,6.549,1.096,3.69,99.62807,-1.648,-0.592,81.3,0,109.4,13.63,-0.90,11.8
"2010-11-14 00:44:30",334470,4.448,57.47,3.79,0.796,4.194,99.62865,-1.646,-0.538,81.1,0,109.4,13.63,-0.90,19.5
"2010-11-14 00:45:00",334471,3.083,49.79,4.36,1.152,1.564,99.6292,-1.645,-0.661,80.9,0,109.4,13.63,-0.90,11.8
"2010-11-14 00:45:30",334472,2.06,42.72,2.831,0.081,-0.351,99.63289,-1.635,-0.727,80.7,0,109.4,13.66,-0.89,4.7
"2010-11-14 00:46:00",334473,3.13,47.39,6.55,1.148,1.87,99.64421,-1.606,-0.675,80.4,0,109.4,13.63,-0.86,9.4
"2010-11-14 00:46:30",334474,4.148,61.84,10.61,1.015,4.077,99.66204,-1.561,-0.489,80.4,0,109.4,13.63,-0.81,23.8
"2010-11-14 00:47:00",334475,3.647,69.81,9.66,1.112,3.451,99.65156,-1.588,-0.528,80.6,0,109.4,13.63,-0.84,31.8
"2010-11-14 00:47:30",334476,3.765,82.9,7.309,1.133,3.57,99.64986,-1.592,-0.506,80.7,0,109.4,13.63,-0.85,44.9
"2010-11-14 00:48:00",334477,2.77,80,5.69,0.719,0.862,99.65014,-1.591,-0.626,80.4,0,109.4,13.63,-0.84,42.0
"2010-11-14 00:48:30",334478,4.312,91.1,5.114,0.96,3.894,99.65353,-1.583,-0.648,80.1,0,109.4,13.63,-0.84,53.1
"2010-11-14 00:49:00",334479,2.366,84.3,4.351,0.614,1.107,99.65127,-1.588,-0.593,80.2,0,109.4,13.63,-0.84,46.3
"2010-11-14 00:49:30",334480,4.266,92.2,5.263,0.774,4.483,99.65154,-1.588,-0.435,80.3,0,109.4,13.63,-0.84,54.2
"2010-11-14 00:50:00",334481,3.706,90.2,5.965,1.101,3.821,99.65408,-1.581,-0.494,80.1,0,109.4,13.63,-0.83,52.2
"2010-11-14 00:50:30",334482,3.756,94.4,4.565,1.11,3.279,99.64814,-1.596,-0.518,80.2,0,109.4,13.63,-0.85,56.4
"2010-11-14 00:51:00",334483,2.298,81.3,8.08,0.997,0.88,99.64078,-1.615,-0.654,80.1,0,109.4,13.63,-0.87,43.3
"2010-11-14 00:51:30",334484,2.765,79.64,4.295,1.134,1.794,99.65211,-1.586,-0.681,79.56,0,109.4,13.63,-0.84,41.6
"2010-11-14 00:52:00",334485,2.323,71.53,7.933,1.086,1.348,99.66486,-1.554,-0.548,79.38,0,109.4,13.63,-0.81,33.5
"2010-11-14 00:52:30",334486,3.978,74.9,6.422,0.927,3.32,99.67278,-1.534,-0.499,79.3,0,109.4,13.63,-0.79,36.9
"2010-11-14 00:53:00",334487,3.186,71.35,12.12,1.238,3.136,99.66314,-1.558,-0.472,79.37,0,109.3,13.64,-0.81,33.3
"2010-11-14 00:53:30",334488,3.64,83.8,9.43,0.902,4.26,99.65974,-1.567,-0.484,79.43,0,109.4,13.63,-0.82,45.8
"2010-11-14 00:54:00",334489,1.976,73.04,4.831,0.915,0.383,99.64814,-1.596,-0.599,79.41,0,109.4,13.63,-0.85,35.0
"2010-11-14 00:54:30",334490,2.366,71.44,7.198,1.047,0.65,99.64417,-1.607,-0.704,79.39,0,109.4,13.63,-0.86,33.4
"2010-11-14 00:55:00",334491,3.066,69.59,7.414,1.318,1.735,99.63936,-1.619,-0.578,79.83,0,109.4,13.63,-0.87,31.6
"2010-11-14 00:55:30",334492,3.211,65.04,4.813,1.277,2.251,99.61442,-1.682,-0.566,80.3,0,109.4,13.63,-0.94,27.0
"2010-11-14 00:56:00",334493,3.991,66.86,4.803,0.997,4.246,99.61185,-1.689,-0.489,80.7,0,109.4,13.63,-0.94,28.9
"2010-11-14 00:56:30",334494,4.096,59.6,4.578,0.896,3.963,99.61073,-1.692,-0.538,80.9,0,109.4,13.63,-0.95,21.6
"2010-11-14 00:57:00",334495,2.667,49.33,4.213,0.81,0.408,99.60563,-1.705,-0.712,80.9,0,109.4,13.63,-0.96,11.3
"2010-11-14 00:57:30",334496,3.657,51.26,6.531,1.252,0.786,99.58043,-1.769,-0.806,81.2,0,109.4,13.63,-1.02,13.3
"2010-11-14 00:58:00",334497,3.649,51.07,7.749,1.111,2.267,99.57533,-1.782,-0.668,81.8,0,109.4,13.63,-1.04,13.1
"2010-11-14 00:58:30",334498,4.557,54.57,4.681,0.941,4.005,99.562,-1.816,-0.658,82,0,109.4,13.63,-1.07,16.6
"2010-11-14 00:59:00",334499,4.421,53.17,4.66,0.896,4.189,99.55265,-1.84,-0.635,82.2,0,109.4,13.64,-1.09,15.2
"2010-11-14 00:59:30",334500,4.205,51.8,5.854,1.027,4.104,99.55265,-1.84,-0.617,82.2,0,109.4,13.64,-1.09,13.8
"2010-11-14 01:00:00",334501,3.666,47.75,6.751,1.237,2.745,99.56597,-1.806,-0.747,82,0,109.4,13.64,-1.06,9.8
"2010-11-14 01:00:30",334502,1.83,36.69,3.84,0.511,-0.519,99.57844,-1.774,-0.932,81.8,0,109.4,13.64,-1.03,358.7
"2010-11-14 01:01:00",334503,3.367,44.34,6.273,1.188,1.504,99.57899,-1.773,-0.808,81.8,0,109.4,13.64,-1.03,6.3
"2010-11-14 01:01:30",334504,3.804,42.53,6.671,1.105,3.046,99.57815,-1.775,-0.676,82.1,0,109.4,13.64,-1.03,4.5
"2010-11-14 01:02:00",334505,4.113,43.09,5.83,1.017,3.557,99.57164,-1.791,-0.661,82.1,0,109.4,13.64,-1.05,5.1
"2010-11-14 01:02:30",334506,3.945,42.59,4.724,0.988,3.397,99.54868,-1.85,-0.709,82.2,0,109.4,13.64,-1.10,4.6
"2010-11-14 01:03:00",334507,3.322,41.02,6.131,1.147,1.82,99.54472,-1.86,-0.811,82.2,0,109.4,13.64,-1.11,3.0
"2010-11-14 01:03:30",334508,2.515,38.17,1.582,0.078,-0.767,99.54359,-1.863,-0.912,82.3,0,109.4,13.67,-1.12,0.2
"2010-11-14 01:04:00",334509,2.96,44.61,4.324,0.985,0.123,99.53508,-1.885,-0.879,82.4,0,109.4,13.64,-1.14,6.6
"2010-11-14 01:04:30",334510,4.171,55.17,6.031,1.105,2.943,99.51808,-1.928,-0.805,82.7,0,109.4,13.64,-1.18,17.2
"2010-11-14 01:05:00",334511,4.644,60.8,5.207,0.783,4.072,99.51099,-1.946,-0.744,83.2,0,109.4,13.65,-1.20,22.8
"2010-11-14 01:05:30",334512,4.371,60.65,6.754,1.081,3.278,99.48946,-2.001,-0.829,83.5,0,109.4,13.65,-1.26,22.7
"2010-11-14 01:06:00",334513,4.25,54.21,6.414,1.137,2.808,99.47785,-2.03,-0.882,83.8,0,109.4,13.64,-1.29,16.2
"2010-11-14 01:06:30",334514,2.584,44.6,1.544,0.059,-0.459,99.47785,-2.03,-1.115,83.6,0,109.4,13.67,-1.29,6.6
"2010-11-14 01:07:00",334515,3.881,52.46,6.586,1.215,1.79,99.47701,-2.033,-0.965,83.9,0,109.4,13.64,-1.29,14.5
"2010-11-14 01:07:30",334516,3.891,56.43,8.27,1.217,2.337,99.46764,-2.056,-0.886,84.1,0,109.4,13.65,-1.31,18.4
"2010-11-14 01:08:00",334517,4.89,58.62,2.731,0.766,3.961,99.46028,-2.075,-0.884,84.2,0,109.4,13.65,-1.33,20.6
"2010-11-14 01:08:30",334518,4.085,54.4,6.448,1.289,2.423,99.46084,-2.074,-0.979,84.2,0,109.4,13.64,-1.33,16.4
"2010-11-14 01:09:00",334519,4.068,54.54,6.887,1.142,2.76,99.45659,-2.085,-0.943,84.3,0,109.4,13.64,-1.34,16.5
"2010-11-14 01:09:30",334520,3.3,46.59,5.135,1.018,0.609,99.45971,-2.077,-1.064,84.2,0,109.4,13.63,-1.33,8.6
"2010-11-14 01:10:00",334521,4.401,54.53,6.805,1.217,2.36,99.45744,-2.082,-0.936,84.3,0,109.4,13.64,-1.34,16.5
"2010-11-14 01:10:30",334522,4.993,58.89,5.949,1.003,2.917,99.44583,-2.112,-1.004,84.2,0,109.4,13.63,-1.37,20.9
"2010-11-14 01:11:00",334523,4.749,59.92,5.625,1.091,3.204,99.44554,-2.113,-0.991,84.3,0,109.4,13.63,-1.37,21.9
"2010-11-14 01:11:30",334524,4.752,53.33,6.971,1.043,3.206,99.44554,-2.113,-1.061,84.2,0,109.4,13.63,-1.37,15.3
"2010-11-14 01:12:00",334525,3.947,56.58,6.37,1.217,2.025,99.44298,-2.119,-1.071,84.3,0,109.4,13.63,-1.37,18.6
"2010-11-14 01:12:30",334526,3.85,59.37,7.273,1.247,1.543,99.42966,-2.153,-1.131,84.1,0,109.4,13.63,-1.41,21.4
"2010-11-14 01:13:00",334527,4.462,55.03,8.52,1.161,2.798,99.42402,-2.168,-1.071,84.2,0,109.4,13.63,-1.42,17.0
"2010-11-14 01:13:30",334528,4.308,55.36,6.297,1.283,2.642,99.41579,-2.189,-1.013,84.3,0,109.4,13.63,-1.44,17.4
"2010-11-14 01:14:00",334529,4.056,55.97,6.493,1.233,2.507,99.41381,-2.194,-1.113,84.3,0,109.4,13.63,-1.45,18.0
"2010-11-14 01:14:30",334530,3.864,56.42,7.122,1.281,2.776,99.41778,-2.184,-1.038,84.4,0,109.4,13.64,-1.44,18.4
"2010-11-14 01:15:00",334531,3.861,56.65,6.367,1.209,1.495,99.41154,-2.199,-1.209,84.2,0,109.4,13.64,-1.46,18.7
"2010-11-14 01:15:30",334532,4.062,60.02,6.328,1.268,2.008,99.41013,-2.203,-1.146,84.2,0,109.4,13.65,-1.46,22.0
"2010-11-14 01:16:00",334533,4.149,58.42,8.08,1.253,2.07,99.41069,-2.202,-1.045,84.2,0,109.4,13.65,-1.46,20.4
"2010-11-14 01:16:30",334534,3.121,51.89,6.061,1.123,1.242,99.41409,-2.193,-1.118,84.2,0,109.4,13.65,-1.45,13.9
"2010-11-14 01:17:00",334535,4.308,67.83,6.932,0.929,3.328,99.41663,-2.186,-1.066,84.3,0,109.4,13.65,-1.44,29.8
"2010-11-14 01:17:30",334536,3.662,61.5,9.02,1.272,2.834,99.41296,-2.196,-1.11,84.2,0,109.4,13.65,-1.45,23.5
"2010-11-14 01:18:00",334537,3.051,62.41,9.12,1.148,0.385,99.41296,-2.196,-1.274,84,0,109.4,13.65,-1.45,24.4
"2010-11-14 01:18:30",334538,3.812,55.67,7.631,1.155,2.109,99.41324,-2.195,-1.111,84.3,0,109.4,13.65,-1.45,17.7
"2010-11-14 01:19:00",334539,3.817,57.89,6.598,1.138,2.711,99.42061,-2.176,-1.116,84.3,0,109.4,13.65,-1.43,19.9
"2010-11-14 01:19:30",334540,4.425,57.66,6.684,1.039,2.53,99.42881,-2.155,-1.11,84.3,0,109.4,13.65,-1.41,19.7
"2010-11-14 01:20:00",334541,3.685,56.4,5.955,1.179,2.337,99.42882,-2.155,-1.065,84.4,0,109.4,13.65,-1.41,18.4
"2010-11-14 01:20:30",334542,4.602,59.31,7.292,0.972,3.242,99.42995,-2.153,-1.057,84.4,0,109.4,13.65,-1.41,21.3
"2010-11-14 01:21:00",334543,3.419,52.44,4.574,0.976,1.128,99.42852,-2.156,-1.125,84.3,0,109.4,13.65,-1.41,14.4
"2010-11-14 01:21:30",334544,3.955,59.99,6.807,1.146,2.385,99.43276,-2.145,-1.039,84.3,0,109.4,13.65,-1.40,22.0
"2010-11-14 01:22:00",334545,3.286,61.99,5.926,1.195,1.534,99.43305,-2.145,-1.054,84.3,0,109.4,13.65,-1.40,24.0
"2010-11-14 01:22:30",334546,4,70.45,5.948,1.05,3.164,99.42935,-2.154,-1.035,84.3,0,109.4,13.65,-1.41,32.4
"2010-11-14 01:23:00",334547,4.16,56.06,8.85,1.104,2.675,99.42795,-2.158,-1.098,84.2,0,109.4,13.65,-1.41,18.1
"2010-11-14 01:23:30",334548,3.903,52.56,8.1,1.248,2.351,99.43277,-2.145,-1.05,84.3,0,109.4,13.65,-1.40,14.6
"2010-11-14 01:24:00",334549,3.27,55.68,5.836,1.124,0.883,99.43871,-2.13,-1.202,84.2,0,109.4,13.65,-1.39,17.7
"2010-11-14 01:24:30",334550,4.165,57.03,4.482,1.06,2.666,99.42851,-2.156,-1.088,84.3,0,109.4,13.65,-1.41,19.0
"2010-11-14 01:25:00",334551,3.967,57.02,8.43,1.252,2.12,99.42738,-2.159,-1.071,84.3,0,109.4,13.65,-1.41,19.0
"2010-11-14 01:25:30",334552,4.22,54.24,9.39,1.083,2.434,99.42285,-2.171,-1.103,84.3,0,109.4,13.65,-1.43,16.2
"2010-11-14 01:26:00",334553,4.205,54.83,8.56,1.128,2.903,99.42341,-2.169,-1.044,84.4,0,109.4,13.65,-1.42,16.8
"2010-11-14 01:26:30",334554,4.301,57.67,6.54,1.153,3.17,99.42001,-2.178,-1.078,84.4,0,109.4,13.65,-1.43,19.7
"2010-11-14 01:27:00",334555,4.012,57.94,4.98,1.12,2.767,99.42171,-2.174,-1.103,84.5,0,109.4,13.64,-1.43,19.9
"2010-11-14 01:27:30",334556,3.939,54.86,8.04,1.176,1.895,99.43134,-2.149,-1.126,84.4,0,109.4,13.64,-1.40,16.9
"2010-11-14 01:28:00",334557,3.122,40.9,2.876,0.633,0.51,99.44013,-2.127,-1.188,84.3,0,109.4,13.65,-1.38,2.9
"2010-11-14 01:28:30",334558,3.799,42.31,5.982,1.044,2.835,99.44947,-2.103,-1.036,84.4,0,109.4,13.65,-1.36,4.3
"2010-11-14 01:29:00",334559,3.427,43.26,7.155,1.28,2.486,99.44948,-2.103,-1.046,84.4,0,109.4,13.65,-1.36,5.3
"2010-11-14 01:29:30",334560,3.356,48.73,4.691,1.201,1.574,99.44976,-2.102,-1.009,84.3,0,109.4,13.64,-1.36,10.7
"2010-11-14 01:30:00",334561,3.675,50.19,6.636,1.196,1.066,99.45174,-2.097,-1.221,84.1,0,109.4,13.64,-1.35,12.2
"2010-11-14 01:30:30",334562,3.875,49.3,5.949,1.155,1.933,99.45118,-2.098,-1.025,84.3,0,109.4,13.65,-1.35,11.3
"2010-11-14 01:31:00",334563,3.851,47.01,7.123,1.255,1.81,99.44096,-2.124,-1.07,84.7,0,109.4,13.65,-1.38,9.0
"2010-11-14 01:31:30",334564,4.512,50.89,5.839,1.055,2.853,99.41491,-2.191,-1.035,85.1,0,109.4,13.65,-1.45,12.9
"2010-11-14 01:32:00",334565,4.856,54.36,3.912,0.33,3.959,99.38828,-2.259,-1.027,85.5,0,109.4,13.65,-1.51,16.4
"2010-11-14 01:32:30",334566,4.054,53.45,5.691,1.061,2.775,99.37183,-2.301,-1.133,85.9,0,109.4,13.65,-1.56,15.5
"2010-11-14 01:33:00",334567,3.052,48.83,7.01,1.207,0.696,99.35711,-2.338,-1.353,86.1,0,109.4,13.65,-1.59,10.8
"2010-11-14 01:33:30",334568,2.25,46.08,5.549,0.973,0.412,99.36221,-2.325,-1.253,86.4,0,109.4,13.65,-1.58,8.1
"2010-11-14 01:34:00",334569,3.421,53.3,5.937,1.159,2.501,99.38374,-2.27,-1.232,86.1,0,109.4,13.65,-1.53,15.3
"2010-11-14 01:34:30",334570,3.294,55.21,6.067,1.232,2.147,99.39394,-2.244,-1.233,85.8,0,109.4,13.66,-1.50,17.2
"2010-11-14 01:35:00",334571,3.177,57.81,5.829,1.218,2.543,99.41548,-2.189,-1.144,85.5,0,109.4,13.66,-1.45,19.8
"2010-11-14 01:35:30",334572,2.751,54.01,6.051,1.149,1.259,99.42226,-2.172,-1.191,85.1,0,109.4,13.66,-1.43,16.0
"2010-11-14 01:36:00",334573,2.366,51.3,8.82,1.136,0.83,99.44693,-2.109,-1.211,84.7,0,109.4,13.66,-1.36,13.3
"2010-11-14 01:36:30",334574,2.598,47.19,6.045,1.244,1.025,99.45118,-2.098,-1.12,84.8,0,109.4,13.66,-1.35,9.2
"2010-11-14 01:37:00",334575,2.738,44.32,5.638,1.216,1.038,99.45174,-2.097,-1.109,85,0,109.4,13.66,-1.35,6.3
"2010-11-14 01:37:30",334576,3.276,49.36,6.79,1.194,1.561,99.42934,-2.154,-1.114,85.4,0,109.4,13.66,-1.41,11.4
"2010-11-14 01:38:00",334577,3.303,52.49,6.336,1.239,1.563,99.41206,-2.198,-1.065,86,0,109.4,13.66,-1.45,14.5
"2010-11-14 01:38:30",334578,3.188,52.19,6.547,1.161,1.377,99.38231,-2.274,-1.091,86.5,0,109.4,13.66,-1.53,14.2
"2010-11-14 01:39:00",334579,3.405,50.48,6.435,1.22,0.736,99.35255,-2.35,-1.327,86.7,0,109.4,13.66,-1.61,12.5
"2010-11-14 01:39:30",334580,2.353,44.81,3.176,0.863,-1.176,99.32791,-2.413,-1.345,87.2,0,109.4,13.66,-1.67,6.8
"2010-11-14 01:40:00",334581,3.538,47.52,6.181,1.106,2.111,99.31461,-2.446,-1.266,87.8,0,109.4,13.66,-1.70,9.5
"2010-11-14 01:40:30",334582,3.299,44.82,6.148,1.134,2.632,99.3149,-2.446,-1.228,88.2,0,109.4,13.66,-1.70,6.8
"2010-11-14 01:41:00",334583,3.181,44,5.724,1.044,3.04,99.32027,-2.432,-1.26,88.3,0,109.4,13.66,-1.69,6.0
"2010-11-14 01:41:30",334584,2.843,43.65,6.181,1.195,1.712,99.34576,-2.367,-1.362,88.1,0,109.4,13.66,-1.62,5.7
"2010-11-14 01:42:00",334585,1.157,36.25,0.475,0.091,-1.248,99.35086,-2.354,-1.495,87.8,0,109.4,13.69,-1.61,358.2
"2010-11-14 01:42:30",334586,1.111,36.91,4.409,0.724,-0.563,99.35709,-2.338,-1.347,87.6,0,109.4,13.66,-1.59,358.9
"2010-11-14 01:43:00",334587,2.453,42.67,6.561,1.13,2.247,99.38203,-2.275,-1.276,87.4,0,109.4,13.66,-1.53,4.7
"2010-11-14 01:43:30",334588,2.182,41.3,6.371,1.185,1.765,99.38374,-2.27,-1.292,87,0,109.4,13.65,-1.53,3.3
"2010-11-14 01:44:00",334589,1.309,38.3,6.181,1.098,-0.12,99.38797,-2.259,-1.436,86.7,0,109.4,13.66,-1.52,0.3
"2010-11-14 01:44:30",334590,1.904,41,6.23,1.255,1.411,99.39506,-2.241,-1.182,86.8,0,109.4,13.66,-1.50,3.0
"2010-11-14 01:45:00",334591,1.097,33.06,7.427,1.032,-0.395,99.39392,-2.244,-1.25,86.7,0,109.4,13.66,-1.50,355.1
"2010-11-14 01:45:30",334592,0.325,14.49,9.35,0.185,-1.311,99.38627,-2.264,-1.388,86.7,0,109.4,13.69,-1.52,336.5
"2010-11-14 01:46:00",334593,0.353,15.84,7.418,0.214,-2.032,99.38599,-2.265,-1.397,86.9,0,109.4,13.69,-1.52,337.8
"2010-11-14 01:46:30",334594,0.945,14.94,13.56,1.09,-0.192,99.36021,-2.33,-1.267,87.3,0,109.4,13.66,-1.59,336.9
"2010-11-14 01:47:00",334595,1.629,25.64,17.96,1.151,1.081,99.32763,-2.413,-1.25,87.7,0,109.4,13.66,-1.67,347.6
"2010-11-14 01:47:30",334596,1.186,21.91,14.15,1.265,-0.221,99.27492,-2.548,-1.388,88.1,0,109.4,13.66,-1.80,343.9
"2010-11-14 01:48:00",334597,0.348,11.81,16.02,0.853,-1.495,99.22704,-2.67,-1.393,88.8,0,109.4,13.67,-1.93,333.8